RH
8 4 3 2 2 2 2 2 2 3 4 4 4 4 4 3 3 5 6 8 10 10 10 8 9 7 8 7 8 9 10 11 12
4 3 2 2 2 2 2 2 3 4 5 5 4 4 3 3 4 4 4 4 5 6 6 5 6 6 6 7 7 7 8 8 9
4 2 2 2 2 2 2 3 4 5 5 5 4 3 3 4 3 3 4 4 4 4 5 5 5 5 6 6 7 6 7 8 8
4 2 2 2 2 2 3 4 4 5 6 4 4 3 3 3 3 3 4 4 4 4 5 5 5 6 7 7 7 6 7 9 9
3 2 2 2 2 3 3 3 3 4 4 4 3 3 3 3 3 3 3 3 4 5 5 5 6 7 7 8 7 8 9 11 12
3 2 2 2 3 4 3 3 4 5 5 5 4 4 4 4 4 4 3 4 4 6 5 6 7 7 8 8 8 9 11 12 13
3 4 4 4 4 5 4 6 9 10 10 8 7 5 5 5 5 4 4 4 5 6 6 7 8 8 9 9 9 11 13 14 15
5 6 4 4 5 5 9 11 11 10 12 16 15 13 10 8 6 5 5 6 6 6 6 8 9 10 11 10 12 13 14 17 19
6 6 6 6 6 6 7 9 8 8 10 16 21 23 23 21 15 10 9 8 8 8 7 10 10 11 13 12 13 17 19 24 27
7 8 9 9 11 13 12 9 9 11 12 12 11 12 15 21 26 25 21 16 14 13 9 13 14 13 16 16 19 22 29 42 41
16 13 12 14 16 13 8 6 6 8 9 7 7 9 9 11 20 32 35 33 26 22 19 10 17 19 15 18 21 26 30 45 48
22 17 13 14 13 11 11 11 14 15 16 15 14 11 10 11 13 18 31 45 48 40 32 31 16 15 26 21 21 25 31 38 55
18 14 18 13 11 20 19 19 19 18 16 17 18 17 17 14 12 13 18 29 45 49 51 43 42 39 27 28 37 32 33 41 54
14 20 21 18 21 23 20 21 23 23 21 21 25 29 29 33 37 40 36 32 28 27 31 51 64 73 81 72 51 50 53 52 55
19 18 20 14 33 23 22 26 23 18 17 17 30 33 30 36 37 48 74 78 75 80 82 66 56 64 86 96 100 95 85 74 75
32 34 20 21 24 17 23 36 37 22 22 18 17 15 17 28 46 64 62 61 74 85 99 100 98 91 78 83 97 96 98 97 97
31 42 55 33 24 39 46 33 24 19 22 14 11 11 25 49 48 48 32 33 46 68 89 93 95 99 97 96 91 84 84 96 97
58 50 33 40 34 21 21 19 17 13 9 8 14 26 20 21 26 23 28 32 32 34 42 60 82 82 80 96 98 99 97 94 94
50 51 47 18 15 18 11 12 11 9 8 11 24 26 20 22 18 23 31 32 31 36 36 39 41 61 69 76 85 98 96 97 98
18 16 15 13 12 12 11 11 8 8 9 10 34 9 11 16 12 6 8 7 8 10 21 15 19 32 24 33 85 81 98 98 100
Wind_Speed
13 13 14 13 12 12 12 13 14 13 14 15 16 16 16 17 18 17 17 19 19 19 19 20 21 20 18 18 17 16 16 16 17
14 14 14 14 13 14 13 14 14 14 14 15 16 17 17 18 18 18 18 19 20 20 20 19 19 18 17 16 17 17 16 16 17
15 15 15 15 15 15 14 14 14 15 15 16 17 17 17 19 19 19 20 19 19 20 19 19 18 17 17 17 17 16 17 16 17
15 16 16 15 15 15 15 15 15 15 16 17 18 19 19 19 19 19 20 19 20 20 19 18 18 18 18 18 18 17 16 16 18
17 17 16 16 15 15 15 16 16 16 17 17 19 19 19 20 20 21 21 21 21 21 20 20 19 19 19 19 18 17 17 17 17
19 18 17 17 16 16 17 18 19 18 18 17 18 20 20 20 22 23 23 24 24 23 22 22 22 21 21 20 18 18 18 18 17
20 20 20 19 18 18 18 19 19 19 19 18 19 20 21 21 22 24 25 26 26 25 25 24 24 23 23 22 20 19 18 19 19
20 19 20 20 19 19 20 21 21 20 20 20 19 20 22 23 24 25 26 27 27 28 28 27 26 25 24 24 22 20 21 20 21
19 20 20 20 20 20 20 21 22 23 23 23 22 23 24 25 26 27 28 27 28 28 29 29 28 27 26 25 24 23 22 22 22
20 20 22 22 22 22 23 23 24 25 26 27 27 27 28 28 29 30 31 31 31 29 30 30 30 29 29 27 27 26 25 24 25
21 22 23 23 23 24 25 25 25 27 27 28 28 28 29 31 31 32 33 35 35 33 32 32 32 32 31 31 31 30 30 29 27
24 24 24 24 25 25 25 26 27 27 27 29 30 31 31 32 32 33 34 36 38 38 36 35 35 34 34 34 34 35 34 34 32
27 26 26 26 27 26 28 28 29 29 29 31 32 34 34 35 36 36 37 38 38 39 40 39 39 38 39 39 39 38 38 38 38
28 28 28 29 29 29 30 30 31 31 33 34 34 36 37 37 37 39 40 40 40 41 43 43 43 43 42 43 43 42 42 42 42
29 30 30 30 30 31 32 31 32 33 35 35 35 38 39 39 39 40 39 39 40 42 42 43 46 49 47 45 44 47 48 47 46
31 31 32 31 32 33 33 33 33 35 37 38 39 39 39 40 41 38 40 42 43 43 44 45 47 50 49 49 48 46 45 44 46
34 33 31 33 34 35 34 36 38 39 40 40 41 40 38 38 40 42 44 45 46 46 45 45 47 48 48 48 51 54 56 52 48
34 35 35 36 37 37 38 39 41 40 41 41 41 41 39 37 38 42 45 47 49 51 52 52 50 50 50 52 54 56 59 53 58
38 38 38 38 39 39 40 41 42 42 41 40 38 39 40 38 40 44 47 47 47 45 44 46 50 52 55 56 59 60 62 59 50
40 40 39 40 41 41 42 42 42 41 41 39 36 39 40 43 44 42 37 42 44 45 45 48 52 57 56 54 57 68 67 61 55
Wind_Direction
289 292 294 296 302 305 308 305 304 307 310 308 309 305 307 306 305 305 304 301 299 300 300 302 300 301 301 300 300 301 301 304 305
296 297 296 297 300 300 302 305 303 304 306 306 305 308 310 308 307 307 304 303 303 302 301 299 301 301 301 300 301 301 302 303 304
296 296 296 298 299 302 303 304 304 304 305 305 305 307 308 305 305 306 303 302 301 300 301 301 300 298 299 298 296 298 302 304 306
293 291 292 294 296 301 303 301 302 306 306 305 307 307 304 305 305 304 303 302 301 300 299 296 294 294 295 293 293 294 297 303 306
288 288 293 295 298 300 300 301 305 305 304 306 307 307 309 308 309 310 307 303 299 296 293 291 290 290 289 287 288 291 295 300 302
291 293 295 298 300 301 302 303 304 304 306 308 309 308 307 310 312 309 305 301 298 293 290 289 288 287 286 285 283 286 291 294 294
291 294 295 296 295 296 297 299 303 306 307 306 305 305 309 309 308 307 305 302 297 293 291 289 288 285 283 281 280 280 284 288 290
285 288 289 289 290 294 296 299 301 302 303 303 305 306 307 307 307 307 303 300 298 295 291 287 285 283 280 277 276 278 284 286 289
281 283 285 286 288 292 296 299 302 302 304 303 304 304 305 306 304 303 301 300 298 295 290 286 284 281 278 275 273 273 276 281 284
280 282 283 284 288 294 297 299 300 301 304 305 307 308 306 303 301 300 299 299 296 295 291 287 285 282 279 276 273 273 273 276 279
276 277 281 286 291 293 295 298 300 301 303 304 306 306 305 303 302 301 300 298 296 294 291 287 285 285 282 279 275 272 271 272 274
275 278 283 289 291 293 297 299 299 299 301 301 302 304 304 301 300 298 296 294 293 290 287 285 283 282 280 278 276 274 271 271 270
276 281 284 288 290 293 296 297 298 299 299 299 299 300 301 301 299 297 293 290 288 287 286 283 281 281 280 278 276 274 273 271 271
278 279 282 286 289 292 294 296 297 298 297 299 299 297 298 298 298 296 294 294 292 290 286 284 281 279 279 280 278 277 275 272 271
274 275 278 284 287 289 291 292 293 293 293 294 294 293 294 295 295 295 296 296 295 294 291 288 283 280 277 277 282 278 272 272 271
266 271 277 281 283 285 287 288 288 290 290 290 290 292 293 295 294 296 296 293 293 292 290 289 287 285 283 280 278 276 274 279 279
268 271 275 280 281 284 284 286 287 290 290 292 293 295 296 295 296 294 293 293 293 291 290 289 288 287 286 284 283 279 276 275 275
267 271 275 277 279 281 283 287 288 291 294 295 296 297 298 296 294 296 296 296 295 294 293 293 290 288 284 285 280 276 274 278 272
265 267 270 274 278 281 285 288 291 293 294 295 295 296 299 298 297 298 298 298 296 296 298 298 293 289 284 278 276 276 273 269 275
267 270 275 278 280 284 286 289 291 292 293 295 291 295 296 299 300 300 302 302 300 302 305 302 299 298 294 288 279 274 270 271 273